Location: Newark
(34.3481°N, 134.0494°E)
Time: 07:13:35
(UTC+00:00)

SR - Visible Passes

Search period start: 27 January 2020 00:00
Search period end: 06 February 2020 00:00
Orbit: 574 x 882 km, 66.7° (Epoch: 26 January)

Date Brightness Start Highest point End Pass type
(mag) Time Alt. Az. Time Alt. Az. Time Alt. Az.
27 Jan ? 21:07:28 10° N 21:12:13 30° NE 21:16:38 10° ESE visible
28 Jan ? 20:18:48 10° N 20:22:06 16° NE 20:25:14 10° E visible
29 Jan ? 21:09:48 10° NNW 21:15:08 58° ENE 21:19:57 10° SE visible
30 Jan ? 20:20:35 10° N 20:25:13 28° NE 20:29:31 10° ESE visible
31 Jan ? 10:45:21 10° S 10:46:44 17° S 10:46:44 17° S visible
31 Jan ? 19:32:02 10° NNE 19:35:05 15° NE 19:37:58 10° E visible
31 Jan ? 21:12:30 10° NNW 21:17:49 70° WSW 21:22:37 10° SSE visible
01 Feb ? 09:57:13 10° SSE 09:59:47 19° SE 09:59:47 19° SE visible
01 Feb ? 11:37:23 10° SW 11:39:17 21° SW 11:39:17 21° SW visible
01 Feb ? 20:23:01 11° NNW 20:28:08 54° ENE 20:32:54 10° SE visible
02 Feb ? 10:47:32 10° SSW 10:52:23 64° S 10:52:23 64° S visible
02 Feb ? 19:35:28 18° N 19:38:12 26° NE 19:42:23 10° ESE visible
02 Feb ? 21:15:38 10° NW 21:20:17 33° WSW 21:24:35 10° S visible
03 Feb ? 09:58:27 10° S 10:03:47 40° ESE 10:05:26 33° ENE visible
03 Feb ? 11:40:56 10° WSW 11:44:56 28° WNW 11:44:56 28° WNW visible
03 Feb ? 18:48:03 14° NE 18:48:03 14° NE 18:50:41 10° ENE visible
03 Feb ? 20:27:31 23° NNW 20:30:50 75° WSW 20:35:37 10° SSE visible
04 Feb ? 09:10:26 10° SSE 09:14:26 19° ESE 09:18:27 10° ENE visible
04 Feb ? 10:50:22 10° SW 10:56:04 56° WNW 10:57:57 39° N visible
04 Feb ? 19:40:15 45° NNE 19:41:08 50° ENE 19:45:51 10° SE visible
04 Feb ? 21:19:44 10° WNW 21:22:36 16° WSW 21:25:27 10° SW visible
05 Feb ? 10:00:35 10° SSW 10:06:21 76° ESE 10:10:50 18° NNE visible
05 Feb ? 11:45:19 10° W 11:49:05 17° NW 11:50:20 16° NW visible
05 Feb ? 18:53:07 20° E 18:53:07 20° E 18:55:14 10° ESE visible
05 Feb ? 20:32:37 34° W 20:33:20 35° WSW 20:37:40 10° S visible
